Regional Weather Roundup
Issued by NWS

Home | Current Version | Previous Version | Graphics & Text | Print | Product List | Glossary On
Versions: 1 2 3 4 5 6 7 8 9 10 11 12 13 14 15 16 17 18 19 20 21 22 23 24 25 26 27 28 29 30 31 32 33 34 35 36 37 38 39 40 41 42 43 44 45 46 47 48 49 50
170
ASUS45 KTFX 211210
RWRMT
MONTANA REGIONAL WEATHER ROUNDUP
NATIONAL WEATHER SERVICE GREAT FALLS MT
500 AM MST TUE FEB 21 2017

NOTE: "FAIR" INDICATES FEW OR NO CLOUDS BELOW 12000 FEET WITH NO
SIGNIFICANT WEATHER AND/OR OBSTRUCTIONS TO VISIBILITY.

MTZ001>007-043-211300-
WEST OF THE DIVIDE

CITY           SKY/WX    TMP DP  RH WIND       PRES   REMARKS
KALISPELL      CLOUDY    30  29  96 SW5       29.67F
MISSOULA       MIX PCPN  32  32 100 CALM      29.70F VSB 1/4
BUTTE          CLOUDY    33  28  81 W3        29.68S
MULLAN PASS    LGT SNOW  26  26 100 S6        29.60F VSB 1   WCI  19
ANACONDA         N/A     36  32  87 S6        29.68F WCI  31
DEER LODGE       N/A     34  34 100 CALM      29.70F
EUREKA           N/A     34  30  86 CALM      29.67S
HAMILTON         N/A     36  34  93 NE3       29.67F
LIBBY            N/A     28  28 100 CALM      29.68R
PLAINS           N/A     31  25  78 CALM      29.71F
RONAN            N/A     35  30  82 CALM      29.74R
$$

MTZ008-052>055-211300-
SOUTHWEST MONTANA

CITY           SKY/WX    TMP DP  RH WIND       PRES   REMARKS
BOZEMAN        PTCLDY    35  30  82 SE3       29.69F
DILLON         CLOUDY    37  29  72 S6        29.70F
W YELLOWSTONE  SNOW      32  32 100 SW13      29.83S VSB 1/2 WCI  22
ENNIS          CLOUDY    43  28  56 S24G30    29.76F
THREE FORKS      N/A     45 -20   6 S16       29.70F
TWIN BRIDGES     N/A     37  28  70 CALM      29.74R
$$

MTZ009-010-012-014-046-048-049-054-211300-
EAST SLOPES AND CENTRAL MONTANA

CITY           SKY/WX    TMP DP  RH WIND       PRES   REMARKS
CUT BANK       PTCLDY    37  22  54 CALM      29.61R
GREAT FALLS    CLOUDY    39  28  64 S8        29.63F
MALMSTROM AFB  CLOUDY    33  29  86 E6        29.64F WCI  27
HELENA         CLOUDY    36  32  85 NE3       29.67F
AUGUSTA          N/A     36  29  75 SW16      29.61F WCI  26
BOWMANS CRNR   MOCLDY    35  29  79 S15       29.62F WCI  25
CHOTEAU          N/A     43  28  56 SW9       29.64R
CONRAD           N/A     36  28  73 NE1       29.67F
POWER          MOCLDY    35  29  78 S7        29.63S WCI  29
RAYNESFORD     CLOUDY    37  28  71 CALM      29.64F
ULM            CLOUDY    41  29  63 MISG      29.64F
$$

MTZ011-013-016-021-045-047-050-051-211300-
NORTH CENTRAL MONTANA

CITY           SKY/WX    TMP DP  RH WIND       PRES   REMARKS
HAVRE          CLOUDY    38  31  76 SW16      29.64R WCI  29
LEWISTOWN      CLOUDY    35  28  75 W5        29.67F
N BAR RANCH    MOCLDY    37  23  56 N3        29.70S
CHINOOK          N/A     34  30  86 SW7       29.63R WCI  28
DENTON         MOCLDY    34  28  80 W9        29.63S WCI  26
FORT BENTON      N/A     39  30  70 N6        29.66S
GEYSER         CLOUDY    37  28  70 S7        29.65S WCI  31
GRASS RANGE      N/A     40  28  62 SE9       29.64S
JUDITH GAP     MOCLDY    37  28  70 S15       29.68R WCI  28
ROY              N/A     40  29  62 MISG      29.64F
STANFORD       CLOUDY    35  28  74 CALM      29.65F
WINIFRED         N/A     43  27  52 W3        29.65F
$$

MTZ017>020-022>027-061-062-211300-
NORTHEAST MONTANA

CITY           SKY/WX    TMP DP  RH WIND       PRES   REMARKS
GLASGOW        CLEAR     35  32  88 MISG      29.65S
JORDAN           N/A     35  31  85 W9        29.67S WCI  28
SIDNEY         CLEAR     28  26  92 SW7       29.68R WCI  21
WOLF POINT     PTCLDY    28  25  88 CALM      29.67R
PLENTYWOOD       N/A     34  30  86 CALM      29.64S
POPLAR           N/A     34  28  80 SW3       29.67S
SCOBEY           N/A     31  25  78 SE1       29.64R
$$

MTZ028>42-056>058-211300-
SOUTHCENTRAL AND SOUTHEAST MONTANA

CITY           SKY/WX    TMP DP  RH WIND       PRES   REMARKS
BAKER          CLOUDY    41  29  62 W6        29.72R
BILLINGS       MOCLDY    45  31  58 SW7       29.69R
LIVINGSTON     CLOUDY    47  30  51 SW23G32   29.68F
MILES CITY     CLOUDY    42  30  62 S9        29.70S
BIG TIMBER     CLOUDY    46  32  57 W17       29.71F
EKALAKA          N/A     49  28  44 CALM      29.74S
FORSYTH          N/A     45  32  61 CALM      29.69F
HARLOWTON      MOCLDY    35  28  76 E8        29.68R WCI  28
LAUREL           N/A     46  28  49 SW9       29.72R
$$

REGIONAL REPORTS...DAKOTAS

CITY           SKY/WX    TMP DP  RH WIND       PRES   REMARKS
WILLISTON      CLEAR     31  27  85 SW7       29.65S WCI  24
MINOT          CLEAR     32  28  85 CALM      29.63R
DICKINSON      PTCLDY    39  28  64 W12       29.66R WCI  32
BEACH            N/A    N/A N/A N/A MISG        N/A
CROSBY           N/A     28  28 100 S6        29.65F WCI  22
TIOGA            N/A     32  32 100 SW8       29.65S WCI  25
WATFORD CITY     N/A     30  27  86 SW8       29.66R WCI  23
BISMARCK       CLOUDY    31  28  89 CALM      29.67R
GRAND FORKS    CLOUDY    32  27  81 E5        29.73F
FARGO          CLOUDY    34  32  92 SE7       29.75F WCI  28
BUFFALO SD       N/A     47  33  58 W13       29.67R
RAPID CITY     PTCLDY    46  30  53 S7        29.78S
$$

REGIONAL REPORTS...WYOMING/IDAHO/WASHINGTON

CITY           SKY/WX    TMP DP  RH WIND       PRES   REMARKS
GILLETTE       PTCLDY    47  32  56 SW35G45   29.71F
SHERIDAN       PTCLDY    49  28  44 VRB6G20   29.70F
BUFFALO WY     CLEAR     45  27  49 S7        29.75F
CODY           CLEAR     40  32  73 CALM      29.77F
YELLOWSTONE LA   N/A     30  29  96 VRB5      29.86F
IDAHO FALLS    MOCLDY    37  37 100 SW16      29.88F WCI  28
SALMON         CLOUDY    39  36  87 S10       29.71F
BOISE          PTCLDY    47  38  71 SE13G28   29.83R
SPOKANE        FOG       32  31  96 NE7       29.65F VSB 1/4 WCI  26
$$

REGIONAL REPORTS...ALBERTA

CITY           SKY/WX    TMP DP  RH WIND       PRES   REMARKS
EDMONTON       CLOUDY    32  27  80 S5        29.65S
CALGARY        CLOUDY    28  27  93 N10       29.60R FOG     WCI  19
LETHBRIDGE     CLOUDY    28 N/A N/A W5        29.60F
MEDICINE HAT   CLOUDY    32  32 100 N5        29.61S FOG
WATERTON GATE    N/A     36  23  60 W13G21      N/A  WCI  27
CARDSTON         N/A     25  25 100 W2          N/A
MILK RIVER       N/A     28  25  86 SW6         N/A  WCI  22
$$

REGIONAL REPORTS...SASKATCHEWAN

CITY           SKY/WX    TMP DP  RH WIND       PRES   REMARKS
SWIFT CURRENT  CLOUDY    30  30 100 E7        29.57R FOG     WCI  23
REGINA         LGT RAIN  32  30  93 NE7       29.62S WCI  26
SASKATOON      CLOUDY    32  27  80 N3        29.69S
CYPRESS HILLS    N/A     34  27  75 W7          N/A  WCI  28
VAL MARIE        N/A     30  28  93 S7          N/A  WCI  23
ROCKGLEN         N/A     34  34 100 SW13        N/A  WCI  25
ASSINIBOIA       N/A     30  28  93 NW1         N/A
$$




USA.gov is the U.S. government's official web portal to all federal, state and local government web resources and services.